Вернуться в каталог

TIANMU-1 20

АктивенПогодаSSO
NORAD 58661·PAYLOAD·🇨🇳 China

Запущен Dec 27, 2023 с Jiuquan Satellite Launch Center

Loading…

Ближайшие Пролёты (ближайшие 24 часа)

TLE

СвежийSource: Space-Track

Эпоха: Sep 14, 2026, 22:08 UTC

1 58661U 23208B   26257.92259028  .00007955  00000-0  24416-3 0  9996
2 58661  97.4522  15.5269 0006937  15.1983 344.9467 15.33994202151177

Отслеживайте TIANMU-1 20 в реальном времени с AllMySat

Download on the App Store